Flag for Greece Weather past 2 weeks in Alexandroupoli, Greece

Now
52 °F

Passing clouds.


Feels Like: 51 °F
Forecast: 47 / 59 °F
Wind: 3 mph from North

Location: Alexandroupoli Airport

Current Time: Apr 21, 2015 at 10:14:30 PM

Latest Report: Apr 21, 2015 at 9:20 PM


Visibility: N/A

Pressure: 30.01 "Hg

Humidity: 54%

Dew point: 36 °F

Location of AlexandroupoliLocation

Historic Weather in Alexandroupoli — Graph

°F

Alexandroupoli temperature yesterday

Maximum temperature yesterday: 57 °F (at 1:50 PM)
Minimum temperature yesterday: 37 °F (at 6:50 AM)
Average temperature yesterday: 52 °F

Past Weeks' High & Low Weather Summary

 TemperatureHumidityPressure
High68 °F (Apr 13, 4:50 PM)94% (Apr 6, 8:20 PM)30.33 "Hg (Apr 6, 8:20 PM)
Low37 °F (Apr 8, 6:50 AM)20% (Apr 10, 4:20 PM)29.65 "Hg (Apr 6, 8:20 PM)
Average55 °F61%30.06 "Hg
* Reported Apr 6 8:20 PM — Apr 21 8:50 PM, Alexandroupoli, Weather by CustomWeather, © 2015

Note: Actual official high and low records may vary slightly from our data, if they occured in-between our weather recording intervals... More about our weather records

Advertising

Alexandroupoli weather history for previous 24 hours

 ConditionsComfort  
Time TempWeatherWind HumidityBarometerVisibility
8:50 PM
Tue, Apr 21
54 °FPassing clouds.5 mph51%30.01 "HgN/A
8:20 PM54 °FPassing clouds.7 mph38%30.01 "HgN/A
7:50 PM55 °FPassing clouds.14 mph36%30.01 "HgN/A
7:20 PM57 °FScattered clouds.14 mph36%30.01 "HgN/A
6:50 PM57 °FScattered clouds.14 mph36%30.01 "HgN/A
6:20 PM59 °FScattered clouds.14 mph31%30.01 "HgN/A
5:50 PM59 °FScattered clouds.10 mph31%30.01 "HgN/A
5:20 PM59 °FScattered clouds.13 mph31%30.01 "HgN/A
4:50 PM59 °FScattered clouds.13 mph31%30.01 "HgN/A
4:20 PM61 °FScattered clouds.12 mph34%30.01 "HgN/A
3:50 PM61 °FScattered clouds.18 mph34%30.01 "HgN/A
3:20 PM59 °FScattered clouds.17 mph36%29.98 "HgN/A
2:50 PM59 °FScattered clouds.17 mph36%29.98 "HgN/A
2:20 PM59 °FScattered clouds.17 mph55%29.98 "HgN/A
1:50 PM57 °FScattered clouds.17 mph59%29.98 "HgN/A
1:20 PM55 °FScattered clouds.13 mph59%29.98 "HgN/A
12:50 PM55 °FScattered clouds.13 mph59%29.98 "HgN/A
12:20 PM54 °FScattered clouds.10 mph63%29.95 "HgN/A
11:50 AM54 °FScattered clouds.10 mph63%29.95 "HgN/A
11:20 AM54 °FScattered clouds.15 mph67%29.95 "HgN/A
10:50 AM54 °FBroken clouds.16 mph67%29.95 "HgN/A
10:20 AM52 °FBroken clouds.8 mph77%29.92 "HgN/A
9:50 AM52 °FBroken clouds.8 mph77%29.92 "HgN/A
9:20 AM52 °FLight rain. Broken clouds.15 mph82%29.89 "HgN/A
8:50 AM52 °FPartly sunny.7 mph82%29.89 "HgN/A
8:20 AM50 °FScattered clouds.3 mph88%29.86 "HgN/A
7:50 AM50 °FPassing clouds.3 mph88%29.86 "HgN/A
7:20 AM50 °FPassing clouds.No wind88%29.83 "HgN/A
6:50 AM50 °FPassing clouds.No wind88%29.83 "HgN/A
11:50 PM
Mon, Apr 20
50 °FClear.6 mph71%29.86 "Hg10 mi
11:20 PM50 °FClear.6 mph71%29.86 "Hg10 mi
10:50 PM50 °FClear.6 mph71%29.86 "Hg10 mi
10:20 PM52 °FClear.6 mph58%29.86 "Hg10 mi
Weather by CustomWeather, © 2015

See weather overviewHow to use our weather pages